GW0070 Weather Reports


time (UTC)temp
F
wind
direction
speed
knots
gust
knots
rain 1hr
in
rain 24hr
in
rain mn
in
humidity
%
barometer
mb
20260506171017 59 247 9.6 12.2 0.00 0.00 0.00 83 1020.7
20260506170516 59 237 8.7 12.2 0.00 0.00 0.00 83 1020.6
20260506170107 59 241 8.7 12.2 0.00 0.00 0.00 84 1020.5
20260506165517 58 246 8.7 12.2 0.00 0.00 0.00 83 1020.7
20260506165017 58 236 9.6 13.0 0.00 0.00 0.00 84 1020.5
20260506164601 58 235 10.4 13.0 0.00 0.00 0.00 84 1020.5
20260506164018 58 245 10.4 13.0 0.00 0.00 0.00 85 1020.5
20260506163515 57 244 9.6 13.0 0.00 0.00 0.00 85 1020.5
20260506163059 57 245 10.4 13.0 0.00 0.00 0.00 85 1020.4
20260506162516 57 247 10.4 13.9 0.00 0.00 0.00 85 1020.4
20260506162020 57 239 10.4 13.0 0.00 0.00 0.00 86 1020.6
20260506161559 56 249 11.3 13.9 0.00 0.00 0.00 87 1020.6
20260506161018 56 242 12.2 13.9 0.00 0.00 0.00 86 1020.6
20260506160515 56 243 10.4 13.0 0.00 0.00 0.00 87 1020.6
20260506160100 56 239 11.3 13.0 0.00 0.00 0.00 87 1020.6
20260506155515 56 249 10.4 13.0 0.00 0.00 0.00 88 1020.7
20260506155015 56 241 11.3 13.0 0.00 0.00 0.00 88 1020.7
20260506154614 55 233 10.4 13.0 0.00 0.00 0.00 88 1020.8
20260506154015 55 243 10.4 13.9 0.00 0.00 0.00 89 1020.6
20260506153518 55 241 9.6 13.9 0.00 0.00 0.00 89 1020.7
20260506153059 55 245 10.4 13.0 0.00 0.00 0.00 89 1020.6
20260506152517 55 241 10.4 13.0 0.00 0.00 0.00 89 1020.5
20260506152016 55 239 10.4 13.9 0.00 0.00 0.00 90 1020.4
20260506151603 55 248 10.4 13.9 0.00 0.00 0.00 91 1020.5
20260506151017 55 241 12.2 13.9 0.00 0.00 0.00 90 1020.5
20260506150518 54 238 11.3 13.9 0.00 0.00 0.00 90 1020.3
20260506150057 54 245 12.2 13.9 0.00 0.00 0.00 91 1020.1
20260506145520 54 243 12.2 13.9 0.00 0.00 0.00 91 1020.1
20260506145017 54 237 11.3 15.6 0.00 0.00 0.00 91 1020.1
20260506144609 54 249 12.2 15.6 0.00 0.00 0.00 91 1020.4
20260506144018 54 245 11.3 15.6 0.00 0.00 0.00 91 1020.4
20260506143519 53 251 13.0 15.6 0.00 0.00 0.00 91 1020.0
20260506143102 53 253 13.9 16.5 0.00 0.00 0.00 91 1020.1
20260506142517 53 251 13.9 16.5 0.00 0.00 0.00 92 1019.9
20260506142015 53 254 13.9 16.5 0.00 0.00 0.00 92 1019.8
20260506141600 53 239 13.0 15.6 0.00 0.00 0.00 92 1019.9
20260506141017 53 253 13.0 15.6 0.00 0.00 0.00 92 1019.6
20260506140519 53 254 13.0 18.2 0.00 0.00 0.00 91 1019.7
20260506140116 53 250 13.9 16.5 0.00 0.00 0.00 91 1019.7
20260506135519 53 245 12.2 15.6 0.00 0.00 0.00 91 1019.6
20260506135017 53 253 13.0 18.2 0.00 0.00 0.00 91 1019.5
20260506134614 53 245 14.8 18.2 0.00 0.00 0.00 91 1019.4
20260506134017 53 249 13.0 17.4 0.00 0.00 0.00 90 1019.4
20260506133521 53 250 13.0 17.4 0.00 0.00 0.00 90 1019.4
20260506133128 53 248 13.0 17.4 0.00 0.00 0.00 90 1019.5
20260506132517 53 253 13.0 16.5 0.00 0.00 0.00 90 1019.5
20260506132021 53 241 14.8 17.4 0.00 0.00 0.00 90 1019.4
20260506131555 53 242 13.9 17.4 0.00 0.00 0.00 90 1019.3
20260506131020 53 256 12.2 16.5 0.00 0.00 0.00 90 1019.4
20260506130517 53 259 13.0 17.4 0.00 0.00 0.00 90 1019.3
20260506130123 53 245 13.0 18.2 0.00 0.00 0.00 90 1019.3
20260506125520 53 239 14.8 18.2 0.00 0.00 0.00 90 1019.3
20260506125016 53 256 14.8 20.9 0.00 0.00 0.00 90 1019.1
20260506124622 53 256 16.5 20.9 0.00 0.00 0.00 90 1019.2
20260506124017 53 244 15.6 19.1 0.00 0.00 0.00 90 1019.1
20260506123515 53 247 14.8 20.0 0.00 0.00 0.00 91 1019.0
20260506123119 53 251 16.5 20.0 0.00 0.00 0.00 90 1018.9
20260506122519 53 251 15.6 20.0 0.00 0.00 0.00 90 1019.0
20260506122011 53 246 17.4 20.0 0.00 0.00 0.00 90 1018.9
20260506121528 53 248 14.8 19.1 0.00 0.00 0.00 90 1018.9
20260506121009 53 239 15.6 18.2 0.00 0.00 0.00 91 1019.0
20260506120511 53 243 14.8 20.9 0.00 0.00 0.00 90 1019.0
20260506120030 53 241 15.6 20.9 0.00 0.00 0.00 90 1019.1
20260506115508 53 247 15.6 20.0 0.00 0.00 0.00 90 1019.0
20260506115008 53 252 13.0 20.0 0.00 0.00 0.00 90 1019.1
20260506114529 53 243 14.8 18.2 0.00 0.00 0.00 90 1019.0
20260506114009 53 245 15.6 19.1 0.00 0.00 0.00 90 1018.9
20260506113508 53 242 15.6 19.1 0.00 0.00 0.00 90 1018.9
20260506113028 53 257 12.2 19.1 0.00 0.00 0.00 90 1018.9
20260506112509 53 237 15.6 19.1 0.00 0.00 0.00 90 1018.7
20260506112009 53 228 13.9 19.1 0.00 0.00 0.00 89 1018.9
20260506111528 53 239 13.0 18.2 0.00 0.00 0.00 90 1018.8
20260506111011 53 246 13.0 18.2 0.00 0.00 0.00 90 1018.7
20260506110511 53 243 10.4 18.2 0.00 0.00 0.00 89 1018.8
20260506110028 53 251 12.2 17.4 0.00 0.00 0.00 90 1018.6
20260506105508 53 263 10.4 17.4 0.00 0.00 0.00 90 1019.1
20260506105008 53 244 13.9 18.2 0.00 0.00 0.00 90 1018.8
20260506104554 53 241 13.9 19.1 0.00 0.00 0.00 89 1018.7
20260506104009 53 236 15.6 20.0 0.00 0.00 0.00 89 1018.6
20260506103510 53 244 16.5 20.0 0.00 0.00 0.00 88 1018.3
20260506103032 53 251 16.5 21.7 0.00 0.00 0.00 88 1018.3
20260506102508 53 242 17.4 20.9 0.00 0.00 0.00 88 1018.3
20260506102009 53 246 16.5 20.9 0.00 0.00 0.00 88 1018.1
20260506101529 53 245 16.5 20.9 0.00 0.00 0.00 89 1018.3
20260506101007 53 249 16.5 20.9 0.00 0.00 0.00 89 1018.1
20260506100508 53 238 17.4 22.6 0.00 0.00 0.00 89 1018.0
20260506100039 53 247 19.1 23.5 0.00 0.00 0.00 89 1018.0
20260506095511 53 246 17.4 23.5 0.00 0.01 0.00 90 1018.2
20260506095009 53 245 18.2 23.5 0.00 0.01 0.00 89 1018.0
20260506094533 53 240 18.2 23.5 0.00 0.01 0.00 89 1018.0
20260506094012 53 251 17.4 21.7 0.00 0.01 0.00 89 1018.2
20260506093513 53 257 17.4 20.9 0.00 0.01 0.00 89 1018.2
20260506093028 53 254 17.4 21.7 0.00 0.01 0.00 88 1018.0
20260506092507 53 253 18.2 21.7 0.00 0.01 0.00 88 1018.3
20260506092013 53 246 17.4 21.7 0.00 0.01 0.00 88 1018.5
20260506091529 53 249 16.5 20.0 0.00 0.01 0.00 88 1018.3
20260506091010 53 237 16.5 20.9 0.00 0.01 0.00 88 1018.4
20260506090511 53 238 15.6 20.9 0.00 0.01 0.00 89 1018.5
20260506090035 53 247 17.4 24.3 0.00 0.01 0.00 88 1018.4
20260506085511 53 253 18.2 24.3 0.00 0.03 0.00 88 1018.1
20260506085008 53 243 15.6 20.0 0.00 0.03 0.00 88 1018.5
20260506084527 53 255 15.6 20.0 0.00 0.03 0.00 88 1018.6
20260506084012 53 255 14.8 20.0 0.00 0.03 0.00 88 1018.4
20260506083512 53 241 13.9 22.6 0.00 0.03 0.00 88 1018.6
20260506083037 53 240 18.2 22.6 0.00 0.03 0.00 87 1018.4
20260506082510 53 237 18.2 22.6 0.00 0.03 0.00 88 1018.1
20260506082007 53 224 15.6 22.6 0.00 0.03 0.00 88 1018.4
20260506081526 53 249 17.4 22.6 0.00 0.03 0.00 88 1018.1
20260506081010 53 239 18.2 22.6 0.00 0.03 0.00 89 1018.2
20260506080508 53 247 17.4 22.6 0.00 0.03 0.00 90 1018.4
20260506073512 53 241 21.7 27.8 0.00 0.09 0.00 89 1017.0
20260506073030 53 258 23.5 27.8 0.00 0.09 0.00 89 1017.0
20260506072512 53 246 22.6 26.9 0.00 0.09 0.00 89 1016.9
20260506072011 53 254 24.3 27.8 0.00 0.09 0.00 88 1017.0
20260506071529 53 249 23.5 27.8 0.00 0.09 0.00 88 1017.0
20260506071012 53 244 22.6 27.8 0.00 0.09 0.00 88 1017.0
20260506070507 53 246 22.6 26.1 0.00 0.09 0.00 88 1017.0
20260506062512 53 247 20.9 25.2 0.00 0.11 0.09 87 1017.1
20260506062011 54 240 20.0 24.3 0.00 0.11 0.09 87 1016.9
20260506061528 54 243 20.0 26.1 0.00 0.11 0.09 87 1016.8
20260506061013 54 235 21.7 26.1 0.00 0.11 0.09 86 1016.7
20260506060514 54 243 22.6 26.1 0.00 0.11 0.09 86 1017.0
20260506051012 54 255 24.3 28.7 0.00 0.17 0.09 85 1016.4
20260506050510 54 241 23.5 27.8 0.00 0.17 0.09 85 1016.3
20260506045008 54 233 23.5 26.1 0.00 0.24 0.09 86 1016.0
20260506044533 55 252 22.6 26.1 0.00 0.24 0.09 85 1016.0
20260506044011 54 240 21.7 25.2 0.00 0.24 0.09 86 1016.1
20260506043511 54 255 20.0 26.1 0.00 0.24 0.09 86 1016.1
20260506043028 55 256 22.6 26.1 0.00 0.24 0.09 86 1016.0
20260506042513 55 263 22.6 26.1 0.00 0.24 0.09 86 1016.1
20260506042012 55 253 22.6 26.1 0.00 0.24 0.09 86 1015.9
20260506041528 55 238 21.7 25.2 0.00 0.24 0.09 86 1015.8
20260506041011 55 247 20.9 24.3 0.00 0.24 0.09 86 1015.8
20260506040511 55 249 19.1 24.3 0.00 0.24 0.09 86 1016.0
20260506040042 55 244 20.9 24.3 0.00 0.24 0.09 85 1016.0
20260506035510 55 252 20.9 24.3 0.00 0.29 0.09 85 1016.0
20260506035010 55 241 20.9 25.2 0.00 0.29 0.09 85 1015.7
20260506034530 55 253 21.7 25.2 0.00 0.29 0.09 85 1015.6
20260506034010 55 247 17.4 24.3 0.00 0.29 0.09 85 1015.9
20260506033511 55 255 20.0 24.3 0.00 0.29 0.09 84 1016.0
20260506033029 55 258 20.9 26.9 0.00 0.29 0.09 84 1015.8
20260506032511 56 250 19.1 26.9 0.00 0.29 0.09 84 1015.9
20260506032011 56 246 20.9 25.2 0.00 0.29 0.09 84 1015.3
20260506031530 56 247 22.6 25.2 0.00 0.29 0.09 84 1015.3
20260506031012 56 258 21.7 25.2 0.00 0.29 0.09 85 1015.2
20260506030511 56 258 19.1 24.3 0.00 0.29 0.09 85 1014.9
20260506030028 56 247 21.7 26.1 0.00 0.29 0.09 85 1014.8
20260506025512 56 255 21.7 26.1 0.00 0.31 0.09 85 1014.7
20260506025012 56 260 20.0 24.3 0.00 0.31 0.09 85 1015.0
20260506024536 57 247 20.9 25.2 0.00 0.31 0.09 84 1014.6
20260506024009 57 261 21.7 26.1 0.00 0.31 0.09 84 1014.6
20260506023514 57 244 20.9 26.1 0.00 0.31 0.09 84 1014.5
20260506023030 57 243 21.7 26.9 0.00 0.31 0.09 84 1014.4
20260506022511 57 249 23.5 26.9 0.00 0.31 0.09 84 1014.2
20260506022011 57 235 20.0 24.3 0.00 0.31 0.09 83 1014.4
20260506021543 58 259 20.9 24.3 0.00 0.31 0.09 83 1014.4
20260506021010 58 242 20.9 23.5 0.00 0.31 0.09 83 1014.4
20260506020513 58 243 20.9 23.5 0.00 0.31 0.09 83 1014.6
20260506020030 58 237 19.1 25.2 0.00 0.31 0.09 84 1014.7
20260506015512 58 239 21.7 25.2 0.00 0.31 0.09 84 1014.4
20260506015015 58 243 19.1 23.5 0.00 0.31 0.09 83 1014.5
20260506014529 58 256 19.1 22.6 0.00 0.31 0.09 83 1014.5
20260506014012 58 245 19.1 25.2 0.00 0.31 0.09 82 1014.7
20260506013512 58 231 21.7 25.2 0.00 0.31 0.09 82 1014.5
20260506013029 58 237 19.1 24.3 0.00 0.31 0.09 82 1014.4
20260506012512 58 227 20.0 23.5 0.00 0.31 0.09 82 1014.6
20260506012012 58 231 18.2 24.3 0.00 0.31 0.09 82 1014.9
20260506011531 58 241 20.9 26.1 0.00 0.31 0.09 82 1014.6
20260506011010 59 231 19.1 26.1 0.00 0.31 0.09 81 1014.4
20260506010512 58 249 20.0 21.7 0.00 0.31 0.09 82 1014.3
20260506010043 58 233 18.2 21.7 0.00 0.31 0.09 83 1014.6
20260506005512 58 233 17.4 20.0 0.00 0.32 0.09 83 1014.7
20260506005013 59 232 15.6 20.9 0.00 0.32 0.09 83 1014.9
20260506004527 59 233 15.6 20.9 0.00 0.32 0.09 84 1014.8
20260506004010 59 222 15.6 20.0 0.00 0.32 0.09 83 1014.6
20260506003512 59 221 14.8 18.2 0.00 0.32 0.09 83 1014.6
20260506003029 59 224 15.6 20.0 0.00 0.32 0.09 83 1014.4
20260506002515 59 217 15.6 20.0 0.00 0.32 0.09 82 1014.5
20260506002010 59 237 15.6 19.1 0.00 0.32 0.09 82 1014.4
20260506001528 59 225 15.6 19.1 0.00 0.32 0.09 82 1014.6
20260506001010 59 230 16.5 19.1 0.00 0.32 0.09 81 1014.3
20260506000512 59 235 14.8 18.2 0.00 0.32 0.09 81 1014.4
20260506000031 59 240 14.8 18.2 0.00 0.32 0.09 81 1014.6
20260505235511 59 246 13.9 17.4 0.00 0.32 0.09 80 1014.6
20260505235013 60 236 11.3 15.6 0.00 0.32 0.09 81 1014.8
20260505234547 60 226 11.3 15.6 0.00 0.32 0.09 81 1014.7
20260505234013 60 242 12.2 15.6 0.00 0.32 0.09 80 1014.9
20260505233516 59 242 11.3 15.6 0.00 0.32 0.09 81 1014.9
20260505233033 60 229 12.2 15.6 0.00 0.32 0.09 80 1014.9
20260505232514 60 230 11.3 16.5 0.00 0.32 0.09 80 1015.0
20260505232012 60 224 11.3 16.5 0.00 0.32 0.09 80 1015.0
20260505231532 60 231 12.2 15.6 0.00 0.32 0.09 80 1014.8
20260505231012 59 239 10.4 14.8 0.00 0.32 0.09 81 1014.8
20260505230513 59 237 12.2 14.8 0.00 0.32 0.09 81 1014.7
20260505230031 59 247 10.4 13.9 0.00 0.32 0.09 81 1014.9
20260505225511 59 246 9.6 13.0 0.00 0.32 0.09 81 1015.0
20260505225012 59 220 8.7 14.8 0.00 0.32 0.09 81 1015.0
20260505224533 59 251 10.4 14.8 0.00 0.32 0.09 81 1014.9
20260505224016 59 233 11.3 16.5 0.00 0.32 0.09 81 1015.1
20260505223511 59 237 11.3 16.5 0.00 0.32 0.09 82 1015.1
20260505223029 59 245 12.2 14.8 0.00 0.32 0.09 81 1015.2
20260505222512 59 228 11.3 14.8 0.00 0.32 0.09 81 1015.2
20260505222013 59 226 11.3 14.8 0.00 0.32 0.09 82 1015.3
20260505221529 59 237 12.2 17.4 0.00 0.32 0.09 82 1015.2
20260505221012 59 243 13.0 17.4 0.00 0.32 0.09 81 1015.1
20260505220512 58 238 10.4 15.6 0.00 0.32 0.09 82 1015.2
20260505220031 58 245 13.0 15.6 0.00 0.32 0.09 81 1015.4
20260505215512 58 220 11.3 15.6 0.00 0.32 0.09 82 1015.3
20260505215012 58 226 11.3 16.5 0.00 0.32 0.09 82 1015.4
20260505214542 58 226 13.0 16.5 0.00 0.32 0.09 82 1015.3
20260505214015 58 238 13.0 17.4 0.00 0.32 0.09 83 1015.4
20260505213512 58 245 13.9 17.4 0.00 0.32 0.09 82 1015.3
20260505213031 58 239 13.9 17.4 0.00 0.32 0.09 82 1015.4
20260505212518 58 246 13.0 15.6 0.00 0.32 0.09 83 1015.4
20260505212013 58 234 12.2 15.6 0.00 0.32 0.09 82 1015.4
20260505211540 58 248 13.0 14.8 0.00 0.32 0.09 83 1015.6
20260505211013 58 246 12.2 14.8 0.00 0.32 0.09 83 1015.6
20260505210516 58 222 10.4 13.0 0.00 0.32 0.09 83 1015.6
20260505210033 58 237 10.4 13.9 0.00 0.32 0.09 84 1015.4
20260505205512 58 220 9.6 13.9 0.00 0.32 0.09 84 1015.5
20260505205013 58 221 9.6 13.9 0.00 0.32 0.09 84 1015.6
20260505204534 58 233 10.4 14.8 0.00 0.32 0.09 84 1015.6
20260505204010 58 237 12.2 14.8 0.00 0.32 0.09 82 1015.7
20260505203513 58 240 9.6 13.9 0.00 0.32 0.09 82 1015.7
20260505203046 58 239 11.3 14.8 0.00 0.32 0.09 83 1015.6
20260505202511 58 231 11.3 14.8 0.00 0.32 0.09 82 1015.5
20260505202012 59 254 11.3 13.9 0.00 0.32 0.09 82 1015.3
20260505201531 58 243 10.4 15.6 0.00 0.32 0.09 83 1015.4
20260505201018 58 228 12.2 15.6 0.00 0.32 0.09 83 1015.2
20260505200513 58 233 11.3 15.6 0.00 0.32 0.09 83 1015.3
20260505200039 58 255 12.2 15.6 0.00 0.32 0.09 83 1015.4
20260505195512 58 245 13.0 15.6 0.00 0.32 0.09 83 1015.5
20260505195012 58 243 11.3 15.6 0.00 0.32 0.09 83 1015.6
20260505194542 58 242 12.2 15.6 0.00 0.32 0.09 83 1015.5
20260505194016 57 262 12.2 16.5 0.00 0.32 0.09 83 1015.5
20260505193513 57 243 13.0 16.5 0.00 0.32 0.09 83 1015.5
20260505193037 58 241 12.2 18.2 0.00 0.32 0.09 85 1015.6
20260505192512 58 238 13.0 16.5 0.00 0.32 0.09 83 1015.5
20260505192012 57 253 11.3 16.5 0.00 0.32 0.09 84 1015.5
20260505191543 57 264 13.9 18.2 0.00 0.32 0.09 83 1015.5
20260505191012 57 260 13.0 18.2 0.00 0.32 0.09 83 1015.4
20260505190511 57 272 13.0 18.2 0.00 0.32 0.09 84 1015.3
20260505190035 57 275 11.3 15.6 0.00 0.32 0.09 83 1015.5
20260505185513 57 271 13.0 16.5 0.00 0.32 0.09 84 1015.4
20260505185014 56 259 14.8 16.5 0.00 0.32 0.09 83 1015.2
20260505184545 57 248 13.9 17.4 0.00 0.32 0.09 84 1015.2
20260505184016 57 261 12.2 18.2 0.00 0.32 0.09 85 1015.4
20260505183512 57 243 13.0 18.2 0.00 0.32 0.09 86 1015.4
20260505183043 56 262 13.0 17.4 0.00 0.32 0.09 86 1015.5
20260505182512 56 265 13.0 16.5 0.00 0.32 0.09 87 1015.5
20260505182013 56 262 13.9 17.4 0.00 0.32 0.09 87 1015.4
20260505181535 56 267 14.8 17.4 0.00 0.32 0.09 86 1015.3
20260505181010 55 256 13.9 20.0 0.00 0.32 0.09 87 1015.1
20260505180516 55 268 15.6 20.9 0.00 0.32 0.09 85 1015.1
20260505180037 55 263 17.4 20.9 0.00 0.32 0.09 87 1015.0
20260505175517 55 258 17.4 20.0 0.00 0.32 0.09 90 1014.9
20260505175013 54 253 16.5 20.9 0.00 0.32 0.09 89 1014.7
20260505174539 54 255 17.4 21.7 0.00 0.32 0.09 90 1015.1
20260505174014 54 255 17.4 22.6 0.00 0.32 0.09 90 1015.2
20260505173511 54 261 20.0 22.6 0.00 0.32 0.09 90 1015.0
20260505173039 54 266 17.4 21.7 0.00 0.32 0.09 90 1014.7
20260505172512 54 262 17.4 23.5 0.00 0.32 0.09 90 1014.7
20260505172014 53 260 20.0 23.5 0.00 0.32 0.09 90 1014.7
20260505171537 53 262 16.5 22.6 0.00 0.32 0.09 91 1014.8